Regional Weather Roundup
Issued by NWS

Home | Current Version | Previous Version | Graphics & Text | Print | Product List | Glossary On
Versions: 1 2 3 4 5 6 7 8 9 10 11 12 13 14 15 16 17 18 19 20 21 22 23 24 25 26 27
000
ASUS45 KSLC 221010
RWRUT

UTAH REGIONAL WEATHER ROUNDUP
NATIONAL WEATHER SERVICE SALT LAKE CITY UT
400 AM MDT SAT APR 22 2017

UTZ001>011-023>025-221100-

NORTHERN UTAH

CITY           SKY/WX    TMP DP  RH WIND       PRES   REMARKS
BRIGHAM CITY     N/A     37  32  84 N3        30.25S
HILL AFB         N/A     36  27  71 E12       30.24S WCI  27
LOGAN            N/A     33  29  85 CALM      30.25F
OGDEN            N/A     36  28  73 S7        30.24S WCI  30
SALT LAKE CITY   N/A     41  31  67 S7        30.24S
TOOELE VALLEY    N/A     32  28  86 S9        30.25R WCI  24
WENDOVER         N/A     41  31  67 W3        30.24F
HEBER CITY       N/A     25  19  80 CALM      30.25S
WEST JORDAN      N/A     38  35  89 SW5       30.25S WCI  35

$$

UTZ011>015-024>027-221100-

CENTRAL/NORTHEAST UTAH

CITY           SKY/WX    TMP DP  RH WIND       PRES   REMARKS
PROVO AIRPORT    N/A     35  25  66 SE3       30.26S
MOAB/CANYONLAN   N/A     40  12  32 SW5       30.16R
DELTA            N/A     36  23  60 NE6       30.23S WCI  31
PRICE            N/A     35  16  45 N5        30.19S WCI  31
ROOSEVELT      CLEAR     30  21  69 W3        30.26R
VERNAL         CLEAR     38  18  44 N3        30.23R

$$

UTZ013>016-019>022-027-221100-

SOUTHERN UTAH

CITY           SKY/WX    TMP DP  RH WIND       PRES   REMARKS
BRYCE CANYON     N/A     28  14  55 W12       30.22S WCI  18
CEDAR CITY       N/A     31  19  61 N5        30.19F WCI  26
MILFORD          N/A     32  23  69 NE7       30.22S WCI  26
ST GEORGE        N/A     56  20  24 E5        30.10S
HANKSVILLE       N/A     39  18  41 NW3       30.20S
BLANDING         N/A     40  12  31 NW13      30.21S WCI  33

$$

REGIONAL REPORTS     COLORADO/ARIZONA

CITY           SKY/WX    TMP DP  RH WIND       PRES   REMARKS
CRAIG, CO      CLOUDY    33  28  81 NE5       30.24R WCI  29
GRAND JUNCTION CLEAR     45  25  45 VRB3      30.16R
RIFLE, CO      CLOUDY    35  31  85 E3        30.21R
MONTROSE, CO   CLEAR     32  22  66 S7        30.19R WCI  26
CORTEZ, CO     CLOUDY    27  16  63 NE7       30.14S WCI  19
COLORADO CITY    N/A     36  23  60 CALM      30.16R
PAGE, AZ         N/A     53  21  28 W3        30.11R
GRAND CANYON     N/A     27  17  66 NE5       30.15F WCI  22
KINGMAN, AZ      N/A     50  22  33 NE7       30.03S
FLAGSTAFF, AZ    N/A     29  15  56 CALM      30.16R

$$

REGIONAL REPORTS    NEVADA/IDAHO/WYOMING

CITY           SKY/WX    TMP DP  RH WIND       PRES   REMARKS
LAS VEGAS, NV    N/A     66  19  16 NE10      30.01S
ELY, NY          N/A     27  22  81 S8        30.22F WCI  19
ELKO, NV         N/A     36  25  64 W3        30.19F
POCATELLO, ID  CLEAR     31  28  89 NE5       30.26F WCI  26
BURLEY, ID       N/A     32  25  75 CALM      30.23F
FORT BRIDGER,    N/A     29  24  82 W8        30.27F WCI  21
EVANSTON, WY   CLEAR     27  22  81 S6        30.25S WCI  20
ROCK SPRINGS,  CLEAR     29  22  75 S6        30.25R WCI  23

$$




USA.gov is the U.S. government's official web portal to all federal, state and local government web resources and services.